| time (UTC) | temp F | wind direction | speed knots | gust knots | rain 1hr in | rain 24hr in | rain mn in | humidity % | barometer mb |
| 20260902163349 | 92 | 169 | 2.6 | 4.3 | 0.00 | 0.00 | 0.00 | 59 | 1017.6 |
| 20260902162847 | 92 | 96 | 0.9 | 1.7 | 0.00 | 0.00 | 0.00 | 59 | 1017.5 |
| 20260902162342 | 91 | 146 | 0.0 | 0.9 | 0.00 | 0.00 | 0.00 | 62 | 1017.5 |
| 20260902161837 | 91 | 90 | 0.9 | 0.9 | 0.00 | 0.00 | 0.00 | 61 | 1017.5 |
| 20260902161332 | 91 | 151 | 0.0 | 0.9 | 0.00 | 0.00 | 0.00 | 62 | 1017.7 |
| 20260902160828 | 89 | 205 | 0.0 | 0.9 | 0.00 | 0.00 | 0.00 | 65 | 1017.6 |
| 20260902160323 | 90 | 213 | 0.0 | 0.0 | 0.00 | 0.00 | 0.00 | 64 | 1017.6 |
| 20260902155821 | 90 | 159 | 1.7 | 1.7 | 0.00 | 0.00 | 0.00 | 63 | 1017.5 |
| 20260902155320 | 90 | 217 | 0.9 | 1.7 | 0.00 | 0.00 | 0.00 | 62 | 1017.7 |
| 20260902154816 | 89 | 120 | 0.0 | 0.0 | 0.00 | 0.00 | 0.00 | 64 | 1017.8 |
| 20260902154311 | 90 | 138 | 0.9 | 1.7 | 0.00 | 0.00 | 0.00 | 64 | 1017.8 |
| 20260902153810 | 89 | 162 | 0.0 | 0.9 | 0.00 | 0.00 | 0.00 | 65 | 1017.7 |
| 20260902153304 | 89 | 160 | 0.0 | 0.0 | 0.00 | 0.00 | 0.00 | 66 | 1017.7 |
| 20260902152800 | 89 | 199 | 0.9 | 0.9 | 0.00 | 0.00 | 0.00 | 64 | 1017.6 |
| 20260902152256 | 89 | 169 | 0.9 | 1.7 | 0.00 | 0.00 | 0.00 | 65 | 1017.4 |
| 20260902151750 | 89 | 128 | 0.0 | 0.0 | 0.00 | 0.00 | 0.00 | 67 | 1017.4 |
| 20260902151245 | 89 | 165 | 0.0 | 0.0 | 0.00 | 0.00 | 0.00 | 67 | 1017.5 |
| 20260902150740 | 89 | 159 | 0.9 | 1.7 | 0.00 | 0.00 | 0.00 | 67 | 1017.6 |
| 20260902150237 | 88 | 182 | 0.9 | 0.9 | 0.00 | 0.00 | 0.00 | 67 | 1017.4 |
| 20260902145735 | 87 | 97 | 0.0 | 0.9 | 0.00 | 0.00 | 0.00 | 69 | 1017.3 |
| 20260902145231 | 87 | 157 | 1.7 | 1.7 | 0.00 | 0.00 | 0.00 | 70 | 1017.4 |
| 20260902144726 | 87 | 203 | 0.0 | 0.0 | 0.00 | 0.00 | 0.00 | 70 | 1017.5 |
| 20260902144222 | 86 | 122 | 0.9 | 0.9 | 0.00 | 0.00 | 0.00 | 71 | 1017.3 |
| 20260902143717 | 85 | 173 | 0.9 | 0.9 | 0.00 | 0.00 | 0.00 | 72 | 1017.4 |
| 20260902143212 | 85 | 192 | 0.0 | 0.9 | 0.00 | 0.00 | 0.00 | 72 | 1017.3 |
| 20260902142708 | 86 | 196 | 0.0 | 0.0 | 0.00 | 0.00 | 0.00 | 73 | 1017.6 |
| 20260902142204 | 86 | 162 | 0.0 | 0.9 | 0.00 | 0.00 | 0.00 | 72 | 1017.4 |
| 20260902141704 | 85 | 198 | 0.9 | 0.9 | 0.00 | 0.00 | 0.00 | 73 | 1017.5 |
| 20260902141159 | 85 | 182 | 0.9 | 1.7 | 0.00 | 0.00 | 0.00 | 73 | 1017.3 |
| 20260902140654 | 84 | 195 | 0.9 | 0.9 | 0.00 | 0.00 | 0.00 | 74 | 1017.5 |
| 20260902140149 | 84 | 137 | 0.0 | 0.0 | 0.00 | 0.00 | 0.00 | 73 | 1017.3 |
| 20260902135648 | 84 | 175 | 1.7 | 1.7 | 0.00 | 0.00 | 0.00 | 73 | 1017.2 |
| 20260902135143 | 83 | 173 | 0.0 | 0.9 | 0.00 | 0.00 | 0.00 | 74 | 1017.4 |
| 20260902134639 | 83 | 157 | 0.0 | 0.0 | 0.00 | 0.00 | 0.00 | 76 | 1017.4 |
| 20260902134138 | 82 | 176 | 0.0 | 0.0 | 0.00 | 0.00 | 0.00 | 77 | 1017.4 |
| 20260902133633 | 81 | 198 | 0.0 | 0.0 | 0.00 | 0.00 | 0.00 | 78 | 1017.3 |
| 20260902133128 | 81 | 55 | 0.9 | 0.9 | 0.00 | 0.00 | 0.00 | 78 | 1016.9 |
| 20260902132623 | 81 | 190 | 0.0 | 0.0 | 0.00 | 0.00 | 0.00 | 79 | 1017.4 |
| 20260902132118 | 81 | 197 | 0.0 | 0.0 | 0.00 | 0.00 | 0.00 | 79 | 1017.4 |
| 20260902131614 | 81 | 169 | 0.9 | 0.9 | 0.00 | 0.00 | 0.00 | 79 | 1017.2 |
| 20260902131109 | 81 | 199 | 2.6 | 2.6 | 0.00 | 0.00 | 0.00 | 79 | 1017.2 |
| 20260902130605 | 80 | 202 | 0.9 | 0.9 | 0.00 | 0.00 | 0.00 | 79 | 1017.3 |
| 20260902125556 | 80 | 148 | 1.7 | 1.7 | 0.00 | 0.00 | 0.00 | 79 | 1017.2 |
| 20260902125051 | 80 | 193 | 0.0 | 0.0 | 0.00 | 0.00 | 0.00 | 79 | 1017.1 |
| 20260902124548 | 80 | 196 | 0.0 | 0.0 | 0.00 | 0.00 | 0.00 | 79 | 1016.8 |
| 20260902124048 | 79 | 179 | 0.0 | 0.0 | 0.00 | 0.00 | 0.00 | 80 | 1017.0 |
| 20260902123544 | 79 | 186 | 0.0 | 0.9 | 0.00 | 0.00 | 0.00 | 80 | 1016.7 |
| 20260902123043 | 79 | 169 | 0.0 | 0.0 | 0.00 | 0.00 | 0.00 | 80 | 1016.7 |
| 20260902122538 | 79 | 178 | 0.0 | 0.0 | 0.00 | 0.00 | 0.00 | 80 | 1016.8 |
| 20260902122034 | 79 | 159 | 0.0 | 0.0 | 0.00 | 0.00 | 0.00 | 81 | 1016.9 |
| 20260902121534 | 78 | 192 | 0.0 | 0.0 | 0.00 | 0.00 | 0.00 | 82 | 1016.8 |
| 20260902121029 | 78 | 189 | 0.0 | 0.0 | 0.00 | 0.00 | 0.00 | 82 | 1016.9 |
| 20260902120525 | 78 | 199 | 0.0 | 0.0 | 0.00 | 0.00 | 0.00 | 82 | 1016.9 |
| 20260902120021 | 78 | 202 | 0.0 | 0.0 | 0.00 | 0.00 | 0.00 | 82 | 1016.9 |
| 20260902115516 | 78 | 203 | 0.0 | 0.0 | 0.00 | 0.00 | 0.00 | 82 | 1016.8 |
| 20260902115013 | 78 | 204 | 0.0 | 0.0 | 0.00 | 0.00 | 0.00 | 81 | 1016.7 |
| 20260902114508 | 78 | 184 | 0.0 | 0.0 | 0.00 | 0.00 | 0.00 | 82 | 1016.9 |
| 20260902114008 | 78 | 200 | 0.0 | 0.0 | 0.00 | 0.00 | 0.00 | 81 | 1016.9 |
| 20260902113504 | 78 | 203 | 0.0 | 0.0 | 0.00 | 0.00 | 0.00 | 81 | 1017.0 |
| 20260902113003 | 78 | 204 | 0.0 | 0.0 | 0.00 | 0.00 | 0.00 | 80 | 1016.8 |
| 20260902112459 | 78 | 204 | 0.0 | 0.0 | 0.00 | 0.00 | 0.00 | 80 | 1016.8 |
| 20260902111955 | 78 | 205 | 0.0 | 0.0 | 0.00 | 0.00 | 0.00 | 80 | 1016.9 |
| 20260902111451 | 79 | 205 | 0.0 | 0.0 | 0.00 | 0.00 | 0.00 | 79 | 1016.9 |
| 20260902110947 | 79 | 204 | 0.0 | 0.0 | 0.00 | 0.00 | 0.00 | 78 | 1016.8 |
| 20260902110443 | 79 | 201 | 0.0 | 0.0 | 0.00 | 0.00 | 0.00 | 78 | 1016.8 |
| 20260902105937 | 79 | 198 | 0.0 | 0.0 | 0.00 | 0.00 | 0.00 | 78 | 1016.8 |
| 20260902105432 | 79 | 204 | 0.0 | 0.0 | 0.00 | 0.00 | 0.00 | 79 | 1016.9 |
| 20260902104927 | 79 | 205 | 0.0 | 0.0 | 0.00 | 0.00 | 0.00 | 79 | 1016.8 |
| 20260902104423 | 79 | 202 | 0.0 | 0.0 | 0.00 | 0.00 | 0.00 | 79 | 1016.7 |
| 20260902103922 | 79 | 202 | 0.0 | 0.0 | 0.00 | 0.00 | 0.00 | 79 | 1016.7 |
| 20260902103418 | 79 | 205 | 0.0 | 0.0 | 0.00 | 0.00 | 0.00 | 79 | 1016.6 |
| 20260902102913 | 80 | 205 | 0.0 | 0.0 | 0.00 | 0.00 | 0.00 | 78 | 1016.6 |
| 20260902102410 | 80 | 199 | 0.0 | 0.0 | 0.00 | 0.00 | 0.00 | 77 | 1016.7 |
| 20260902101906 | 80 | 195 | 0.0 | 0.0 | 0.00 | 0.00 | 0.00 | 77 | 1016.8 |
| 20260902101401 | 80 | 200 | 0.0 | 0.0 | 0.00 | 0.00 | 0.00 | 77 | 1016.8 |
| 20260902100900 | 80 | 202 | 0.0 | 0.0 | 0.00 | 0.00 | 0.00 | 77 | 1016.8 |
| 20260902100359 | 80 | 201 | 0.0 | 0.0 | 0.00 | 0.00 | 0.00 | 77 | 1016.8 |
| 20260902095854 | 80 | 200 | 0.0 | 0.0 | 0.00 | 0.00 | 0.00 | 76 | 1016.9 |
| 20260902095349 | 80 | 200 | 0.0 | 0.0 | 0.00 | 0.00 | 0.00 | 75 | 1016.9 |
| 20260902094849 | 80 | 198 | 0.0 | 0.0 | 0.00 | 0.00 | 0.00 | 75 | 1016.8 |
| 20260902094345 | 80 | 197 | 0.0 | 0.0 | 0.00 | 0.00 | 0.00 | 75 | 1016.8 |
| 20260902093844 | 81 | 200 | 0.0 | 0.0 | 0.00 | 0.00 | 0.00 | 75 | 1016.6 |
| 20260902093340 | 81 | 194 | 0.0 | 0.0 | 0.00 | 0.00 | 0.00 | 74 | 1016.8 |
| 20260902092838 | 81 | 187 | 0.0 | 0.0 | 0.00 | 0.00 | 0.00 | 74 | 1016.8 |
| 20260902092334 | 81 | 202 | 0.0 | 0.0 | 0.00 | 0.00 | 0.00 | 74 | 1016.5 |
| 20260902091829 | 81 | 199 | 0.0 | 0.0 | 0.00 | 0.00 | 0.00 | 73 | 1016.7 |
| 20260902091324 | 81 | 198 | 0.0 | 0.0 | 0.00 | 0.00 | 0.00 | 73 | 1016.6 |
| 20260902090821 | 81 | 200 | 0.0 | 0.0 | 0.00 | 0.00 | 0.00 | 72 | 1016.2 |
| 20260902090320 | 82 | 199 | 0.0 | 0.0 | 0.00 | 0.00 | 0.00 | 72 | 1016.6 |
| 20260902085813 | 82 | 196 | 0.0 | 0.0 | 0.00 | 0.00 | 0.00 | 71 | 1016.5 |
| 20260902085309 | 82 | 199 | 0.0 | 0.0 | 0.00 | 0.00 | 0.00 | 71 | 1016.5 |
| 20260902084804 | 82 | 192 | 0.9 | 1.7 | 0.00 | 0.00 | 0.00 | 71 | 1016.4 |
| 20260902084301 | 82 | 198 | 0.0 | 0.0 | 0.00 | 0.00 | 0.00 | 71 | 1016.5 |
| 20260902083755 | 82 | 196 | 0.0 | 0.0 | 0.00 | 0.00 | 0.00 | 71 | 1016.3 |
| 20260902083250 | 82 | 203 | 0.0 | 0.9 | 0.00 | 0.00 | 0.00 | 70 | 1016.4 |
| 20260902082745 | 82 | 199 | 0.0 | 0.9 | 0.00 | 0.00 | 0.00 | 70 | 1016.6 |
| 20260902082242 | 82 | 192 | 0.0 | 0.9 | 0.00 | 0.00 | 0.00 | 70 | 1016.6 |
| 20260902081738 | 82 | 202 | 0.0 | 0.0 | 0.00 | 0.00 | 0.00 | 70 | 1016.3 |
| 20260902081233 | 83 | 180 | 0.0 | 0.9 | 0.00 | 0.00 | 0.00 | 70 | 1016.4 |
| 20260902080728 | 83 | 189 | 0.0 | 0.0 | 0.00 | 0.00 | 0.00 | 70 | 1016.4 |
| 20260902080225 | 83 | 190 | 0.0 | 0.0 | 0.00 | 0.00 | 0.00 | 70 | 1016.6 |
| 20260902075724 | 83 | 196 | 0.0 | 0.9 | 0.00 | 0.00 | 0.00 | 70 | 1016.4 |
| 20260902075220 | 83 | 184 | 2.6 | 4.3 | 0.00 | 0.00 | 0.00 | 70 | 1016.4 |
| 20260902074719 | 83 | 176 | 0.9 | 0.9 | 0.00 | 0.00 | 0.00 | 70 | 1016.4 |
| 20260902074216 | 83 | 184 | 0.9 | 0.9 | 0.00 | 0.00 | 0.00 | 70 | 1016.6 |
| 20260902073711 | 83 | 177 | 0.9 | 1.7 | 0.00 | 0.00 | 0.00 | 70 | 1016.4 |
| 20260902073207 | 84 | 186 | 0.9 | 0.9 | 0.00 | 0.00 | 0.00 | 69 | 1016.3 |
| 20260902072702 | 84 | 195 | 0.9 | 0.9 | 0.00 | 0.00 | 0.00 | 70 | 1016.2 |
| 20260902072158 | 84 | 178 | 0.9 | 0.9 | 0.00 | 0.00 | 0.00 | 69 | 1016.4 |
| 20260902071654 | 84 | 152 | 2.6 | 2.6 | 0.00 | 0.00 | 0.00 | 69 | 1016.5 |
| 20260902071149 | 84 | 193 | 0.9 | 1.7 | 0.00 | 0.00 | 0.00 | 69 | 1016.5 |
| 20260902070646 | 84 | 198 | 1.7 | 1.7 | 0.00 | 0.00 | 0.00 | 70 | 1016.4 |
| 20260902070145 | 84 | 175 | 0.9 | 1.7 | 0.00 | 0.00 | 0.00 | 70 | 1016.4 |
| 20260902065644 | 84 | 170 | 0.0 | 0.0 | 0.00 | 0.00 | 0.00 | 70 | 1016.5 |
| 20260902065140 | 84 | 204 | 0.9 | 0.9 | 0.00 | 0.00 | 0.00 | 70 | 1016.5 |
| 20260902064635 | 84 | 161 | 2.6 | 2.6 | 0.00 | 0.00 | 0.00 | 70 | 1016.4 |
| 20260902064130 | 84 | 159 | 3.5 | 5.2 | 0.00 | 0.00 | 0.00 | 70 | 1016.5 |
| 20260902063626 | 84 | 196 | 2.6 | 2.6 | 0.00 | 0.00 | 0.00 | 70 | 1016.4 |
| 20260902063120 | 84 | 187 | 2.6 | 5.2 | 0.00 | 0.00 | 0.00 | 70 | 1016.5 |
| 20260902062619 | 85 | 206 | 1.7 | 2.6 | 0.00 | 0.00 | 0.00 | 69 | 1016.5 |
| 20260902062115 | 85 | 186 | 3.5 | 6.1 | 0.00 | 0.00 | 0.00 | 69 | 1016.4 |
| 20260902061614 | 85 | 150 | 1.7 | 1.7 | 0.00 | 0.00 | 0.00 | 69 | 1016.5 |
| 20260902061110 | 85 | 200 | 2.6 | 2.6 | 0.00 | 0.00 | 0.00 | 68 | 1016.6 |
| 20260902060607 | 85 | 175 | 1.7 | 2.6 | 0.00 | 0.00 | 0.00 | 68 | 1016.5 |
| 20260902055558 | 85 | 185 | 0.9 | 1.7 | 0.00 | 0.00 | 0.00 | 68 | 1016.3 |
| 20260902055054 | 85 | 155 | 2.6 | 2.6 | 0.00 | 0.00 | 0.00 | 68 | 1016.4 |
| 20260902054548 | 85 | 216 | 2.6 | 2.6 | 0.00 | 0.00 | 0.00 | 68 | 1016.5 |
| 20260902054044 | 86 | 204 | 0.9 | 2.6 | 0.00 | 0.00 | 0.00 | 67 | 1016.4 |
| 20260902053539 | 86 | 218 | 2.6 | 2.6 | 0.00 | 0.00 | 0.00 | 67 | 1016.5 |
| 20260902053038 | 86 | 179 | 0.0 | 0.9 | 0.00 | 0.00 | 0.00 | 67 | 1016.4 |
| 20260902052533 | 86 | 205 | 2.6 | 2.6 | 0.00 | 0.00 | 0.00 | 66 | 1016.5 |
| 20260902052029 | 86 | 195 | 0.9 | 0.9 | 0.00 | 0.00 | 0.00 | 66 | 1016.4 |
| 20260902051529 | 86 | 204 | 1.7 | 2.6 | 0.00 | 0.00 | 0.00 | 66 | 1016.6 |
| 20260902051027 | 86 | 200 | 1.7 | 2.6 | 0.00 | 0.00 | 0.00 | 66 | 1016.3 |
| 20260902050522 | 87 | 159 | 0.9 | 1.7 | 0.00 | 0.00 | 0.00 | 65 | 1016.3 |
| 20260902050018 | 87 | 203 | 1.7 | 1.7 | 0.00 | 0.00 | 0.00 | 65 | 1016.3 |
| 20260902045513 | 87 | 179 | 2.6 | 4.3 | 0.00 | 0.00 | 0.00 | 65 | 1016.3 |
| 20260902045010 | 87 | 189 | 2.6 | 4.3 | 0.00 | 0.00 | 0.00 | 64 | 1016.5 |
| 20260902044504 | 87 | 191 | 0.0 | 0.9 | 0.00 | 0.00 | 0.00 | 64 | 1016.3 |
| 20260902044000 | 87 | 202 | 1.7 | 1.7 | 0.00 | 0.00 | 0.00 | 64 | 1016.3 |
| 20260902043455 | 87 | 101 | 2.6 | 2.6 | 0.00 | 0.00 | 0.00 | 63 | 1016.3 |
| 20260902042950 | 87 | 208 | 5.2 | 7.0 | 0.00 | 0.00 | 0.00 | 63 | 1016.2 |
| 20260902042449 | 88 | 197 | 1.7 | 1.7 | 0.00 | 0.00 | 0.00 | 62 | 1016.2 |
| 20260902041944 | 88 | 172 | 3.5 | 5.2 | 0.00 | 0.00 | 0.00 | 62 | 1016.1 |
| 20260902041439 | 88 | 144 | 2.6 | 4.3 | 0.00 | 0.00 | 0.00 | 61 | 1016.1 |
| 20260902040938 | 88 | 182 | 1.7 | 1.7 | 0.00 | 0.00 | 0.00 | 61 | 1016.3 |
| 20260902040433 | 89 | 161 | 1.7 | 2.6 | 0.00 | 0.00 | 0.00 | 60 | 1016.2 |
| 20260902035932 | 89 | 190 | 2.6 | 2.6 | 0.00 | 0.00 | 0.00 | 60 | 1016.1 |
| 20260902035427 | 89 | 105 | 0.9 | 1.7 | 0.00 | 0.00 | 0.00 | 59 | 1015.9 |
| 20260902034926 | 90 | 104 | 1.7 | 1.7 | 0.00 | 0.00 | 0.00 | 57 | 1015.9 |
| 20260902034421 | 90 | 142 | 0.9 | 1.7 | 0.00 | 0.00 | 0.00 | 56 | 1015.9 |
| 20260902033920 | 90 | 94 | 0.9 | 1.7 | 0.00 | 0.00 | 0.00 | 57 | 1015.9 |
| 20260902033414 | 89 | 197 | 0.0 | 0.0 | 0.00 | 0.00 | 0.00 | 59 | 1015.5 |
| 20260902032914 | 90 | 196 | 0.0 | 0.0 | 0.00 | 0.00 | 0.00 | 58 | 1015.6 |
| 20260902032408 | 90 | 194 | 0.0 | 0.0 | 0.00 | 0.00 | 0.00 | 58 | 1015.6 |
| 20260902031903 | 90 | 195 | 0.0 | 0.0 | 0.00 | 0.00 | 0.00 | 57 | 1015.7 |
| 20260902031359 | 90 | 199 | 0.0 | 0.9 | 0.00 | 0.00 | 0.00 | 57 | 1015.6 |
| 20260902030854 | 91 | 192 | 0.0 | 0.0 | 0.00 | 0.00 | 0.00 | 57 | 1015.3 |
| 20260902030348 | 91 | 188 | 0.0 | 0.0 | 0.00 | 0.00 | 0.00 | 56 | 1015.4 |
| 20260902025847 | 91 | 183 | 0.0 | 0.0 | 0.00 | 0.00 | 0.00 | 55 | 1015.3 |
| 20260902025344 | 91 | 196 | 0.0 | 0.0 | 0.00 | 0.00 | 0.00 | 54 | 1015.4 |
| 20260902024838 | 92 | 173 | 0.0 | 0.9 | 0.00 | 0.00 | 0.00 | 54 | 1015.5 |
| 20260902024334 | 92 | 147 | 0.9 | 1.7 | 0.00 | 0.00 | 0.00 | 54 | 1015.3 |
| 20260902023829 | 92 | 137 | 0.9 | 0.9 | 0.00 | 0.00 | 0.00 | 53 | 1015.2 |
| 20260902023324 | 92 | 157 | 0.9 | 1.7 | 0.00 | 0.00 | 0.00 | 53 | 1015.1 |
| 20260902022823 | 92 | 146 | 0.9 | 1.7 | 0.00 | 0.00 | 0.00 | 52 | 1015.1 |
| 20260902022318 | 92 | 195 | 0.9 | 1.7 | 0.00 | 0.00 | 0.00 | 52 | 1014.9 |
| 20260902021815 | 92 | 174 | 0.0 | 0.9 | 0.00 | 0.00 | 0.00 | 53 | 1014.7 |
| 20260902021309 | 92 | 198 | 0.0 | 0.0 | 0.00 | 0.00 | 0.00 | 53 | 1014.7 |
| 20260902020805 | 92 | 194 | 0.0 | 0.0 | 0.00 | 0.00 | 0.00 | 54 | 1014.7 |
| 20260902020301 | 92 | 183 | 0.0 | 0.0 | 0.00 | 0.00 | 0.00 | 54 | 1014.6 |
| 20260902015755 | 92 | 192 | 0.0 | 0.0 | 0.00 | 0.00 | 0.00 | 54 | 1014.6 |
| 20260902015252 | 92 | 194 | 0.0 | 0.0 | 0.00 | 0.00 | 0.00 | 53 | 1014.3 |
| 20260902014748 | 92 | 183 | 0.9 | 0.9 | 0.00 | 0.00 | 0.00 | 53 | 1014.4 |
| 20260902014244 | 92 | 184 | 0.0 | 0.9 | 0.00 | 0.00 | 0.00 | 53 | 1014.4 |
| 20260902013742 | 92 | 193 | 0.0 | 0.0 | 0.00 | 0.00 | 0.00 | 52 | 1014.1 |
| 20260902013238 | 93 | 193 | 0.0 | 0.0 | 0.00 | 0.00 | 0.00 | 52 | 1014.4 |
| 20260902012733 | 93 | 146 | 0.0 | 0.9 | 0.00 | 0.00 | 0.00 | 51 | 1014.5 |
| 20260902012229 | 93 | 191 | 0.9 | 0.9 | 0.00 | 0.00 | 0.00 | 50 | 1013.9 |
| 20260902011724 | 94 | 116 | 0.9 | 1.7 | 0.00 | 0.00 | 0.00 | 50 | 1014.0 |
| 20260902011224 | 94 | 176 | 0.9 | 1.7 | 0.00 | 0.00 | 0.00 | 49 | 1014.1 |
| 20260902010724 | 93 | 192 | 0.9 | 0.9 | 0.00 | 0.00 | 0.00 | 49 | 1013.7 |
| 20260902010220 | 94 | 197 | 0.0 | 0.0 | 0.00 | 0.00 | 0.00 | 49 | 1013.8 |
| 20260902005717 | 94 | 179 | 0.9 | 0.9 | 0.00 | 0.00 | 0.00 | 49 | 1013.9 |
| 20260902005214 | 94 | 194 | 0.0 | 0.9 | 0.00 | 0.00 | 0.00 | 48 | 1013.6 |
| 20260902004713 | 94 | 200 | 0.0 | 0.0 | 0.00 | 0.00 | 0.00 | 48 | 1014.1 |
| 20260902004208 | 95 | 189 | 0.9 | 0.9 | 0.00 | 0.00 | 0.00 | 47 | 1013.9 |
| 20260902003704 | 95 | 173 | 0.9 | 1.7 | 0.00 | 0.00 | 0.00 | 47 | 1014.0 |
| 20260902003159 | 95 | 185 | 0.9 | 1.7 | 0.00 | 0.00 | 0.00 | 47 | 1013.9 |
| 20260902002655 | 95 | 190 | 0.0 | 0.9 | 0.00 | 0.00 | 0.00 | 46 | 1013.9 |
| 20260902002154 | 96 | 119 | 0.0 | 0.0 | 0.00 | 0.00 | 0.00 | 46 | 1013.8 |
| 20260902001650 | 96 | 190 | 0.0 | 0.0 | 0.00 | 0.00 | 0.00 | 46 | 1014.0 |
| 20260902001149 | 96 | 168 | 0.0 | 0.0 | 0.00 | 0.00 | 0.00 | 46 | 1014.1 |
| 20260902000645 | 96 | 138 | 0.0 | 0.9 | 0.00 | 0.00 | 0.00 | 45 | 1014.0 |
| 20260902000140 | 96 | 192 | 0.9 | 0.9 | 0.00 | 0.00 | 0.00 | 45 | 1014.3 |
| 20260901235634 | 96 | 94 | 0.0 | 0.9 | 0.00 | 0.00 | 0.00 | 45 | 1014.4 |
| 20260901235130 | 97 | 126 | 0.0 | 0.9 | 0.00 | 0.00 | 0.00 | 44 | 1014.0 |
| 20260901234629 | 97 | 70 | 0.9 | 0.9 | 0.00 | 0.00 | 0.00 | 44 | 1014.3 |
| 20260901234124 | 96 | 68 | 0.9 | 0.9 | 0.00 | 0.00 | 0.00 | 44 | 1014.1 |
| 20260901233618 | 97 | 109 | 0.0 | 0.0 | 0.00 | 0.00 | 0.00 | 45 | 1014.4 |
| 20260901233109 | 97 | 134 | 0.9 | 1.7 | 0.00 | 0.00 | 0.00 | 45 | 1014.4 |
| 20260901232609 | 97 | 177 | 0.0 | 0.9 | 0.00 | 0.00 | 0.00 | 45 | 1014.3 |
| 20260901232104 | 97 | 199 | 0.9 | 0.9 | 0.00 | 0.00 | 0.00 | 45 | 1014.4 |
| 20260901231600 | 97 | 198 | 0.0 | 0.0 | 0.00 | 0.00 | 0.00 | 45 | 1014.6 |
| 20260901231056 | 97 | 100 | 0.0 | 0.0 | 0.00 | 0.00 | 0.00 | 45 | 1014.5 |
| 20260901230551 | 97 | 170 | 0.0 | 0.9 | 0.00 | 0.00 | 0.00 | 45 | 1014.3 |
| 20260901230046 | 97 | 133 | 0.9 | 0.9 | 0.00 | 0.00 | 0.00 | 45 | 1014.6 |
| 20260901225541 | 97 | 69 | 0.0 | 0.9 | 0.00 | 0.00 | 0.00 | 45 | 1014.6 |
| 20260901225041 | 97 | 137 | 0.9 | 1.7 | 0.00 | 0.00 | 0.00 | 45 | 1014.4 |
| 20260901224537 | 97 | 184 | 0.0 | 0.0 | 0.00 | 0.00 | 0.00 | 45 | 1014.7 |
| 20260901224033 | 97 | 187 | 0.0 | 0.9 | 0.00 | 0.00 | 0.00 | 45 | 1014.7 |
| 20260901223528 | 97 | 190 | 0.0 | 0.9 | 0.00 | 0.00 | 0.00 | 45 | 1014.5 |
| 20260901223024 | 97 | 208 | 0.9 | 0.9 | 0.00 | 0.00 | 0.00 | 45 | 1014.5 |
| 20260901222520 | 97 | 99 | 0.9 | 1.7 | 0.00 | 0.00 | 0.00 | 45 | 1014.6 |
| 20260901222015 | 97 | 194 | 0.0 | 0.0 | 0.00 | 0.00 | 0.00 | 45 | 1014.6 |
| 20260901221511 | 98 | 132 | 2.6 | 2.6 | 0.00 | 0.00 | 0.00 | 44 | 1014.3 |
| 20260901221006 | 98 | 149 | 1.7 | 1.7 | 0.00 | 0.00 | 0.00 | 43 | 1014.6 |
| 20260901220506 | 97 | 121 | 2.6 | 4.3 | 0.00 | 0.00 | 0.00 | 44 | 1014.6 |
| 20260901220004 | 98 | 67 | 0.9 | 0.9 | 0.00 | 0.00 | 0.00 | 44 | 1014.6 |
| 20260901215502 | 98 | 115 | 0.9 | 0.9 | 0.00 | 0.00 | 0.00 | 43 | 1014.7 |
| 20260901215002 | 98 | 127 | 0.9 | 1.7 | 0.00 | 0.00 | 0.00 | 43 | 1014.6 |
| 20260901214501 | 99 | 97 | 2.6 | 2.6 | 0.00 | 0.00 | 0.00 | 43 | 1014.9 |
| 20260901213955 | 100 | 151 | 0.0 | 0.9 | 0.00 | 0.00 | 0.00 | 42 | 1014.7 |
| 20260901213450 | 100 | 170 | 2.6 | 2.6 | 0.00 | 0.00 | 0.00 | 41 | 1014.8 |
| 20260901212949 | 100 | 89 | 0.9 | 0.9 | 0.00 | 0.00 | 0.00 | 41 | 1014.8 |
| 20260901212445 | 98 | 155 | 2.6 | 2.6 | 0.00 | 0.00 | 0.00 | 43 | 1014.9 |
| 20260901211942 | 98 | 163 | 5.2 | 7.0 | 0.00 | 0.00 | 0.00 | 42 | 1014.9 |
| 20260901211437 | 98 | 198 | 3.5 | 5.2 | 0.00 | 0.00 | 0.00 | 43 | 1015.1 |
| 20260901210933 | 98 | 151 | 0.0 | 0.9 | 0.00 | 0.00 | 0.00 | 43 | 1015.1 |
| 20260901210428 | 99 | 137 | 1.7 | 1.7 | 0.00 | 0.00 | 0.00 | 42 | 1015.2 |
| 20260901205925 | 100 | 357 | 0.9 | 0.9 | 0.00 | 0.00 | 0.00 | 42 | 1015.1 |
| 20260901205425 | 101 | 231 | 1.7 | 1.7 | 0.00 | 0.00 | 0.00 | 41 | 1015.1 |
| 20260901204919 | 102 | 208 | 2.6 | 2.6 | 0.00 | 0.00 | 0.00 | 41 | 1015.0 |
| 20260901204416 | 102 | 217 | 0.9 | 2.6 | 0.00 | 0.00 | 0.00 | 41 | 1015.2 |
| 20260901203916 | 101 | 191 | 0.0 | 0.9 | 0.00 | 0.00 | 0.00 | 41 | 1015.2 |
| 20260901203410 | 102 | 152 | 0.0 | 0.0 | 0.00 | 0.00 | 0.00 | 42 | 1015.4 |
| 20260901202906 | 101 | 176 | 0.0 | 0.0 | 0.00 | 0.00 | 0.00 | 42 | 1015.4 |
| 20260901202400 | 101 | 181 | 2.6 | 2.6 | 0.00 | 0.00 | 0.00 | 42 | 1015.4 |
| 20260901201856 | 100 | 190 | 0.0 | 0.9 | 0.00 | 0.00 | 0.00 | 43 | 1015.3 |
| 20260901201356 | 99 | 117 | 2.6 | 4.3 | 0.00 | 0.00 | 0.00 | 43 | 1015.5 |
| 20260901200850 | 101 | 75 | 2.6 | 4.3 | 0.00 | 0.00 | 0.00 | 41 | 1015.5 |
| 20260901200345 | 100 | 243 | 0.0 | 0.9 | 0.00 | 0.00 | 0.00 | 42 | 1015.7 |
| 20260901195844 | 101 | 156 | 0.0 | 0.0 | 0.00 | 0.00 | 0.00 | 42 | 1015.8 |
| 20260901195337 | 99 | 274 | 2.6 | 4.3 | 0.00 | 0.00 | 0.00 | 43 | 1015.9 |
| 20260901194833 | 100 | 74 | 0.9 | 1.7 | 0.00 | 0.00 | 0.00 | 42 | 1016.1 |
| 20260901194332 | 99 | 113 | 2.6 | 2.6 | 0.00 | 0.00 | 0.00 | 43 | 1016.0 |
| 20260901193829 | 99 | 192 | 6.1 | 7.0 | 0.00 | 0.00 | 0.00 | 43 | 1015.9 |
| 20260901193328 | 100 | 152 | 2.6 | 4.3 | 0.00 | 0.00 | 0.00 | 43 | 1016.1 |
| 20260901192822 | 99 | 117 | 2.6 | 4.3 | 0.00 | 0.00 | 0.00 | 45 | 1016.1 |
| 20260901192318 | 100 | 124 | 0.9 | 1.7 | 0.00 | 0.00 | 0.00 | 43 | 1016.1 |
| 20260901191815 | 100 | 221 | 0.9 | 0.9 | 0.00 | 0.00 | 0.00 | 44 | 1016.3 |
| 20260901191309 | 100 | 175 | 1.7 | 1.7 | 0.00 | 0.00 | 0.00 | 43 | 1016.6 |
| 20260901190806 | 98 | 52 | 0.9 | 1.7 | 0.00 | 0.00 | 0.00 | 44 | 1016.4 |
| 20260901190300 | 98 | 84 | 0.9 | 0.9 | 0.00 | 0.00 | 0.00 | 44 | 1016.4 |
| 20260901185758 | 99 | 59 | 1.7 | 2.6 | 0.00 | 0.00 | 0.00 | 44 | 1016.7 |
| 20260901185257 | 99 | 203 | 0.9 | 0.9 | 0.00 | 0.00 | 0.00 | 44 | 1016.7 |
| 20260901184753 | 98 | 149 | 0.9 | 0.9 | 0.00 | 0.00 | 0.00 | 44 | 1016.8 |
| 20260901184248 | 98 | 121 | 0.0 | 0.9 | 0.00 | 0.00 | 0.00 | 45 | 1017.1 |
| 20260901183744 | 98 | 132 | 0.9 | 1.7 | 0.00 | 0.00 | 0.00 | 44 | 1017.1 |
| 20260901183243 | 97 | 115 | 0.9 | 0.9 | 0.00 | 0.00 | 0.00 | 46 | 1017.1 |
| 20260901182739 | 97 | 189 | 0.9 | 0.9 | 0.00 | 0.00 | 0.00 | 45 | 1017.1 |
| 20260901182238 | 98 | 73 | 1.7 | 2.6 | 0.00 | 0.00 | 0.00 | 45 | 1017.4 |
| 20260901181733 | 98 | 76 | 0.9 | 0.9 | 0.00 | 0.00 | 0.00 | 45 | 1017.3 |
| 20260901181228 | 96 | 141 | 0.9 | 1.7 | 0.00 | 0.00 | 0.00 | 46 | 1017.4 |
| 20260901180727 | 99 | 72 | 0.9 | 0.9 | 0.00 | 0.00 | 0.00 | 44 | 1017.4 |
| 20260901180226 | 97 | 185 | 0.9 | 0.9 | 0.00 | 0.00 | 0.00 | 46 | 1017.7 |
| 20260901175725 | 96 | 170 | 2.6 | 2.6 | 0.00 | 0.00 | 0.00 | 48 | 1017.7 |
| 20260901175221 | 96 | 171 | 0.9 | 0.9 | 0.00 | 0.00 | 0.00 | 49 | 1017.6 |
| 20260901174715 | 96 | 69 | 2.6 | 4.3 | 0.00 | 0.00 | 0.00 | 49 | 1017.9 |
| 20260901174211 | 95 | 216 | 0.0 | 0.9 | 0.00 | 0.00 | 0.00 | 50 | 1017.8 |
| 20260901173706 | 96 | 79 | 2.6 | 2.6 | 0.00 | 0.00 | 0.00 | 48 | 1018.1 |
| 20260901173201 | 96 | 61 | 0.0 | 0.9 | 0.00 | 0.00 | 0.00 | 46 | 1018.1 |
| 20260901172658 | 97 | 161 | 0.9 | 1.7 | 0.00 | 0.00 | 0.00 | 47 | 1018.0 |
| 20260901172156 | 97 | 182 | 0.0 | 0.0 | 0.00 | 0.00 | 0.00 | 48 | 1018.1 |
| 20260901171649 | 98 | 59 | 1.7 | 1.7 | 0.00 | 0.00 | 0.00 | 47 | 1018.2 |
| 20260901171148 | 97 | 95 | 0.9 | 1.7 | 0.00 | 0.00 | 0.00 | 50 | 1018.1 |
| 20260901170643 | 96 | 32 | 0.9 | 0.9 | 0.00 | 0.00 | 0.00 | 50 | 1018.4 |
| 20260901170143 | 94 | 209 | 0.0 | 0.9 | 0.00 | 0.00 | 0.00 | 53 | 1018.3 |
| 20260901165641 | 94 | 104 | 0.0 | 0.9 | 0.00 | 0.00 | 0.00 | 54 | 1018.5 |
| 20260901165132 | 93 | 83 | 2.6 | 4.3 | 0.00 | 0.00 | 0.00 | 53 | 1018.3 |
| 20260901164628 | 93 | 246 | 0.9 | 0.9 | 0.00 | 0.00 | 0.00 | 53 | 1018.6 |
| 20260901164122 | 93 | 205 | 0.9 | 0.9 | 0.00 | 0.00 | 0.00 | 53 | 1018.5 |
| 20260901163618 | 94 | 199 | 1.7 | 2.6 | 0.00 | 0.00 | 0.00 | 52 | 1018.6 |